Location: Unspecified
(35.7250°N, 0.0000°E)
Time: 11:48:35
(UTC+00:00)

Vanguard 1 Rocket - Pass Details

Date: 21 June 2019
Orbit: 652 x 4224 km, 34.3° (Epoch: 16 August)

Event Time Altitude Azimuth Distance (km) Brightness Sun altitude
Rises 16:06:48 0° 230° (SW) 8,227 12.8 36.2°
Reaches altitude 10° 16:13:11 10° 226° (SW) 6,878 12.5 34.9°
Maximum altitude 16:32:47 53° 157° (SSE) 2,902 10.1 31.0°
Drops below altitude 10° 16:43:12 10° 84° (E) 3,866 10.2 28.9°
Sets 16:45:42 0° 79° (E) 4,523 10.5 28.4°
